{"data":{"norad_id":65998,"intl_designator":"2025-231D","name":"HULIANWANG DIGUI-90","alt_names":[],"object_type":"PAYLOAD","status":"ACTIVE","operator":null,"country":"PRC","launch_date":"2025-10-16","launch_site_code":"WSC","launch_vehicle":null,"mission":null,"orbit_class":"UNKNOWN","rcs_meters":null,"size_class":null,"mass_kg":null,"dimensions":null,"purposes":[],"wikipedia_slug":null,"has_3d_model":false,"image_url":null,"decayed_at":null,"tle_current":{"epoch":"2026-09-20T13:13:33.446784Z","epoch_age_seconds":136075,"freshness":"FRESH","line1":"1 65998U 25231D   26263.55108156 -.00000100  00000+0  52050-4 0  9997","line2":"2 65998  49.9987 193.6246 0000473  62.8525 297.2395 13.29329545 45579","mean_motion":13.29329545,"eccentricity":4.73e-5,"inclination_deg":49.9987,"raan_deg":193.6246,"arg_perigee_deg":62.8525,"mean_anomaly_deg":297.2395,"bstar":5.205e-5,"rev_number":4557,"period_min":108.3252836301,"perigee_km":1148.9371418204,"apogee_km":1149.6492367163,"semimajor_km":7527.4301892683,"source":"CELESTRAK","updated_at":"2026-09-21T09:00:15.693130Z"}}}